• In Kazakhstan
  • List of Countries
  • For 7 days
  • Water Temperature
  • Weather Map
  • News
  • Weather Widgets
  • user-avatar
    Login

    Hourly Weather São Paulo

    Today, 6 December, Friday

    Time Temperature Precipitation Wind Pressure Humidity
    00:00 +24°C° 1.3 mm 2 mps 694 mmHg 88%
    01:00 +24°C° 1 mm 2 mps 694 mmHg 89%
    02:00 +24°C° 1 mm 2 mps 694 mmHg 89%
    03:00 +23°C° 0 mm 1 mps 694 mmHg 90%
    04:00 +23°C° 0.8 mm 2 mps 694 mmHg 90%
    05:00 +22°C° 0.8 mm 3 mps 694 mmHg 89%
    06:00 +21°C° 0.8 mm 4 mps 694 mmHg 89%
    07:00 +21°C° 0.2 mm 3 mps 695 mmHg 88%
    08:00 +21°C° 0.2 mm 3 mps 695 mmHg 87%
    09:00 +21°C° 0.2 mm 3 mps 696 mmHg 86%
    10:00 +21°C° 0 mm 3 mps 696 mmHg 85%
    11:00 +21°C° 0 mm 3 mps 696 mmHg 83%
    12:00 +21°C° 0 mm 3 mps 696 mmHg 82%
    13:00 +22°C° 0 mm 3 mps 696 mmHg 76%
    14:00 +25°C° 0 mm 3 mps 696 mmHg 70%
    15:00 +26°C° 0 mm 3 mps 696 mmHg 63%
    16:00 +25°C° 0 mm 3 mps 695 mmHg 67%
    17:00 +24°C° 0 mm 3 mps 695 mmHg 71%
    18:00 +21°C° 0 mm 4 mps 695 mmHg 75%
    19:00 +21°C° 0 mm 3 mps 695 mmHg 77%
    20:00 +20°C° 0 mm 3 mps 696 mmHg 79%
    21:00 +19°C° 0 mm 2 mps 696 mmHg 82%
    22:00 +19°C° 0 mm 2 mps 696 mmHg 83%
    23:00 +19°C° 0 mm 2 mps 696 mmHg 84%

    Tomorrow, 7 December, Saturday

    Time Temperature Precipitation Wind Pressure Humidity
    00:00 +18°C° 0 mm 2 mps 696 mmHg 85%
    01:00 +18°C° 0 mm 2 mps 696 mmHg 86%
    02:00 +18°C° 0 mm 2 mps 696 mmHg 86%
    03:00 +18°C° 0 mm 2 mps 695 mmHg 86%
    04:00 +18°C° 0 mm 2 mps 696 mmHg 87%
    05:00 +18°C° 0 mm 2 mps 696 mmHg 87%
    06:00 +18°C° 0 mm 2 mps 696 mmHg 87%
    07:00 +19°C° 0 mm 3 mps 697 mmHg 79%
    08:00 +21°C° 0 mm 3 mps 697 mmHg 70%
    09:00 +24°C° 0 mm 3 mps 698 mmHg 62%
    10:00 +25°C° 0 mm 4 mps 698 mmHg 57%
    11:00 +26°C° 0 mm 4 mps 698 mmHg 52%
    12:00 +28°C° 0 mm 4 mps 698 mmHg 46%
    13:00 +28°C° 0 mm 4 mps 697 mmHg 47%
    14:00 +27°C° 0 mm 5 mps 697 mmHg 48%
    15:00 +27°C° 0 mm 5 mps 697 mmHg 49%
    16:00 +26°C° 0 mm 5 mps 697 mmHg 55%
    17:00 +23°C° 0 mm 5 mps 697 mmHg 60%
    18:00 +22°C° 0 mm 5 mps 696 mmHg 65%
    19:00 +21°C° 0 mm 4 mps 697 mmHg 69%
    20:00 +20°C° 0 mm 4 mps 697 mmHg 73%
    21:00 +18°C° 0 mm 3 mps 698 mmHg 77%
    22:00 +18°C° 0 mm 3 mps 698 mmHg 76%
    23:00 +18°C° 0 mm 3 mps 697 mmHg 76%

    Day after tomorrow, 8 December, Sunday

    Time Temperature Precipitation Wind Pressure Humidity
    00:00 +18°C° 0 mm 3 mps 697 mmHg 76%
    01:00 +17°C° 0 mm 3 mps 697 mmHg 74%
    02:00 +17°C° 0 mm 3 mps 697 mmHg 72%
    03:00 +17°C° 0 mm 2 mps 697 mmHg 70%
    04:00 +17°C° 0 mm 2 mps 697 mmHg 71%
    05:00 +17°C° 0 mm 2 mps 697 mmHg 71%
    06:00 +17°C° 0 mm 2 mps 697 mmHg 72%
    07:00 +19°C° 0 mm 2 mps 698 mmHg 62%
    08:00 +21°C° 0 mm 3 mps 699 mmHg 52%
    09:00 +24°C° 0 mm 3 mps 699 mmHg 42%
    10:00 +25°C° 0 mm 3 mps 699 mmHg 40%
    11:00 +27°C° 0 mm 3 mps 699 mmHg 37%
    12:00 +28°C° 0 mm 3 mps 699 mmHg 35%
    13:00 +28°C° 0 mm 4 mps 699 mmHg 37%
    14:00 +28°C° 0 mm 4 mps 698 mmHg 39%
    15:00 +28°C° 0 mm 5 mps 698 mmHg 41%
    16:00 +27°C° 0 mm 4 mps 698 mmHg 45%
    17:00 +25°C° 0 mm 4 mps 697 mmHg 49%
    18:00 +23°C° 0 mm 4 mps 697 mmHg 54%
    19:00 +22°C° 0 mm 4 mps 697 mmHg 57%
    20:00 +21°C° 0 mm 3 mps 698 mmHg 60%
    21:00 +20°C° 0 mm 3 mps 698 mmHg 64%
    22:00 +19°C° 0 mm 2 mps 698 mmHg 68%
    23:00 +19°C° 0 mm 2 mps 697 mmHg 71%

    9 December, Monday

    Time Temperature Precipitation Wind Pressure Humidity
    00:00 +19°C° 0 mm 2 mps 697 mmHg 75%
    01:00 +18°C° 0 mm 2 mps 697 mmHg 78%
    02:00 +18°C° 0 mm 2 mps 697 mmHg 80%
    03:00 +19°C° 0 mm 1 mps 697 mmHg 83%
    04:00 +19°C° 0 mm 1 mps 697 mmHg 83%
    05:00 +20°C° 0 mm 1 mps 697 mmHg 83%
    06:00 +20°C° 0 mm 1 mps 697 mmHg 82%
    07:00 +22°C° 0 mm 1 mps 698 mmHg 75%
    08:00 +24°C° 0 mm 1 mps 698 mmHg 67%
    09:00 +26°C° 0 mm 2 mps 699 mmHg 59%
    10:00 +28°C° 0.1 mm 2 mps 699 mmHg 55%
    11:00 +29°C° 0.1 mm 2 mps 699 mmHg 51%
    12:00 +30°C° 0.1 mm 2 mps 698 mmHg 48%
    13:00 +30°C° 0.5 mm 2 mps 698 mmHg 49%
    14:00 +30°C° 0.5 mm 2 mps 698 mmHg 50%
    15:00 +30°C° 0.5 mm 2 mps 697 mmHg 52%
    16:00 +28°C° 0.5 mm 2 mps 697 mmHg 58%
    17:00 +27°C° 0.5 mm 3 mps 697 mmHg 64%
    18:00 +25°C° 0.5 mm 3 mps 696 mmHg 71%
    19:00 +25°C° 0.5 mm 3 mps 697 mmHg 71%
    20:00 +24°C° 0.5 mm 2 mps 697 mmHg 72%
    21:00 +24°C° 0.5 mm 2 mps 698 mmHg 72%
    22:00 +24°C° 0.3 mm 2 mps 697 mmHg 75%
    23:00 +23°C° 0.3 mm 2 mps 697 mmHg 78%

    10 December, Tuesday

    Time Temperature Precipitation Wind Pressure Humidity
    00:00 +23°C° 0.3 mm 2 mps 697 mmHg 80%
    01:00 +23°C° 0.1 mm 2 mps 697 mmHg 80%
    02:00 +23°C° 0.1 mm 2 mps 697 mmHg 80%
    03:00 +22°C° 0.1 mm 1 mps 696 mmHg 80%
    04:00 +21°C° 0.4 mm 2 mps 696 mmHg 81%
    05:00 +21°C° 0.4 mm 2 mps 697 mmHg 83%
    06:00 +21°C° 0.4 mm 2 mps 697 mmHg 85%
    07:00 +23°C° 0.2 mm 2 mps 697 mmHg 83%
    08:00 +23°C° 0.2 mm 2 mps 698 mmHg 82%
    09:00 +23°C° 0.2 mm 2 mps 698 mmHg 80%
    10:00 +23°C° 0.3 mm 2 mps 698 mmHg 81%
    11:00 +23°C° 0.3 mm 2 mps 698 mmHg 82%
    12:00 +23°C° 0.3 mm 2 mps 698 mmHg 83%
    13:00 +23°C° 0.3 mm 2 mps 697 mmHg 84%
    14:00 +23°C° 0.3 mm 2 mps 697 mmHg 84%
    15:00 +23°C° 0.3 mm 2 mps 696 mmHg 84%
    16:00 +23°C° 0.3 mm 2 mps 696 mmHg 85%
    17:00 +23°C° 0.3 mm 2 mps 696 mmHg 86%
    18:00 +23°C° 0.3 mm 2 mps 696 mmHg 86%
    19:00 +21°C° 0.1 mm 2 mps 696 mmHg 87%
    20:00 +21°C° 0.1 mm 2 mps 697 mmHg 87%
    21:00 +21°C° 0.1 mm 2 mps 697 mmHg 87%
    22:00 +21°C° 0 mm 2 mps 697 mmHg 87%
    23:00 +21°C° 0 mm 2 mps 697 mmHg 87%

    11 December, Wednesday

    Time Temperature Precipitation Wind Pressure Humidity
    00:00 +22°C° 0 mm 1 mps 697 mmHg 87%
    01:00 +22°C° 0 mm 1 mps 696 mmHg 87%
    02:00 +21°C° 0 mm 1 mps 696 mmHg 87%
    03:00 +21°C° 0 mm 1 mps 696 mmHg 87%
    04:00 +21°C° 0 mm 1 mps 696 mmHg 87%
    05:00 +21°C° 0 mm 1 mps 696 mmHg 87%
    06:00 +22°C° 0 mm 1 mps 696 mmHg 87%
    07:00 +23°C° 0.2 mm 1 mps 697 mmHg 82%
    08:00 +24°C° 0.2 mm 1 mps 697 mmHg 76%
    09:00 +25°C° 0.2 mm 1 mps 697 mmHg 70%
    10:00 +27°C° 0.5 mm 1 mps 697 mmHg 65%
    11:00 +28°C° 0.5 mm 2 mps 697 mmHg 60%
    12:00 +29°C° 0.5 mm 2 mps 697 mmHg 55%
    13:00 +29°C° 1.4 mm 2 mps 697 mmHg 57%
    14:00 +28°C° 1.4 mm 1 mps 696 mmHg 60%
    15:00 +28°C° 1.4 mm 1 mps 695 mmHg 63%
    16:00 +27°C° 1.5 mm 1 mps 695 mmHg 66%
    17:00 +26°C° 1.5 mm 1 mps 695 mmHg 68%
    18:00 +26°C° 1.5 mm 1 mps 695 mmHg 71%
    19:00 +25°C° 1 mm 2 mps 695 mmHg 72%
    20:00 +24°C° 1 mm 2 mps 695 mmHg 74%
    21:00 +24°C° 1 mm 3 mps 695 mmHg 76%
    22:00 +22°C° 0.3 mm 3 mps 695 mmHg 77%
    23:00 +22°C° 0.3 mm 3 mps 695 mmHg 77%
    Show more